Location: Newark
(50.2306°N, 14.0814°E)
Time: 02:38:20
(UTC+00:00)

N. Korean satellite - Pass Details

Date: 11 December 2019
Orbit: 454 x 507 km, 97.2° (Epoch: 23 January)

Event Time Altitude Azimuth Distance (km) Brightness Sun altitude
Rises 16:46:23 0° 195° (SSW) 2,602 10.7 -15.9°
Reaches altitude 10° 16:48:44 10° 209° (SSW) 1,719 10.0 -16.2°
Maximum altitude 16:51:50 25° 266° (W) 1,061 9.1 -16.7°
Drops below altitude 10° 16:54:56 10° 323° (NW) 1,718 9.6 -17.2°
Sets 16:57:18 0° 337° (NNW) 2,600 10.4 -17.5°
